Charleston, SC

7:48 AM EDT on October 17, 2017 (GMT -0400)
Charleston Executive

Weather History for KJZI - July, 2013

Change the Weather History Date:

Saturday, July 20, 2013

  Actual Average (KCHS) Record (KCHS)
Temperature  
Mean Temperature 82 °F -  
Max Temperature 87 °F 91 °F 104 °F (1986)
Min Temperature 78 °F 73 °F 66 °F (1987)
Cooling Degree Days 18    
Growing Degree Days 32 (Base 50)    
Moisture  
Dew Point 73 °F    
Average Humidity 78    
Maximum Humidity 89    
Minimum Humidity 58    
Precipitation  
Precipitation 0.00 in - - ()
Sea Level Pressure  
Sea Level Pressure 30.06 in    
Wind  
Wind Speed 10 mph (SSW)    
Max Wind Speed 16 mph    
Max Gust Speed 24 mph    
Visibility 10 miles    
Events      
Averages and records for this station are not official NWS values.
T = Trace of Precipitation, MM = Missing Value Source: NWS Daily Summary

Daily Weather History Graph

Daily Weather History Graph

Search for Another Location

Airport or City:

Trip Planner

Search our weather history database for the weather conditions in past years. The results will help you decide how hot, cold, wet, or windy it might be!

Date:

Astronomy

Jul. 20, 2013 Rise Set
Actual Time 6:26 AM EDT 8:26 PM EDT
Civil Twilight 5:58 AM EDT 8:53 PM EDT
Nautical Twilight 5:25 AM EDT 9:27 PM EDT
Astronomical Twilight 4:49 AM EDT 10:03 PM EDT
Moon 6:28 PM EDT (7/20) 4:04 AM EDT (7/20)
Length of Visible Light 14h 55m
Length of Day
14h 00m
Waxing Gibbous, 93% of the Moon is Illuminated
Jul 20
Waxing Gibbous
Jul 22
Full
Jul 29
Last Quarter
Aug 6
New
Aug 14
First Quarter

Hourly Weather History & Observations

Time (EDT) Temp. Heat Index Dew Point Humidity Pressure Visibility Wind Dir Wind Speed Gust Speed Precip Events Conditions
12:15 AM 80.6 °F 84.6 °F 71.6 °F 74% 30.10 in 10.0 mi SSW 9.2 mph - 0.00 in   Unknown
12:35 AM 80.6 °F 84.6 °F 71.6 °F 74% 30.10 in 10.0 mi SSW 11.5 mph 17.3 mph 0.00 in   Unknown
12:55 AM 80.6 °F 84.6 °F 71.6 °F 74% 30.10 in 10.0 mi SSW 12.7 mph 17.3 mph 0.00 in   Unknown
1:15 AM 80.6 °F 85.4 °F 73.4 °F 79% 30.10 in 10.0 mi SSW 11.5 mph 19.6 mph 0.00 in   Unknown
1:35 AM 80.6 °F 85.4 °F 73.4 °F 79% 30.10 in 10.0 mi SSW 10.4 mph - 0.00 in   Unknown
1:55 AM 80.6 °F 84.6 °F 71.6 °F 74% 30.10 in 10.0 mi SSW 11.5 mph 17.3 mph 0.00 in   Unknown
2:15 AM 80.6 °F 85.4 °F 73.4 °F 79% 30.10 in 10.0 mi SSW 11.5 mph - 0.00 in   Unknown
2:35 AM 80.6 °F 85.4 °F 73.4 °F 79% 30.09 in 10.0 mi South 12.7 mph 18.4 mph 0.00 in   Unknown
2:55 AM 80.6 °F 85.4 °F 73.4 °F 79% 30.09 in 10.0 mi South 11.5 mph - 0.00 in   Unknown
3:15 AM 80.6 °F 85.4 °F 73.4 °F 79% 30.08 in 10.0 mi South 10.4 mph - 0.00 in   Unknown
3:35 AM 80.6 °F 85.4 °F 73.4 °F 79% 30.08 in 10.0 mi South 11.5 mph 17.3 mph 0.00 in   Unknown
3:55 AM 80.6 °F 86.2 °F 75.2 °F 84% 30.07 in 9.0 mi South 10.4 mph - 0.00 in   Unknown
4:15 AM 78.8 °F - 73.4 °F 83% 30.06 in 9.0 mi South 11.5 mph - 0.00 in   Unknown
4:35 AM 80.6 °F 84.6 °F 71.6 °F 74% 30.06 in 10.0 mi SSW 11.5 mph - 0.00 in   Unknown
4:55 AM 80.6 °F 85.4 °F 73.4 °F 79% 30.05 in 10.0 mi SSW 9.2 mph - 0.00 in   Unknown
5:15 AM 80.6 °F 85.4 °F 73.4 °F 79% 30.06 in 10.0 mi SSW 6.9 mph - 0.00 in   Unknown
5:35 AM 80.6 °F 85.4 °F 73.4 °F 79% 30.06 in 10.0 mi SSW 6.9 mph - 0.00 in   Unknown
5:55 AM 80.6 °F 85.4 °F 73.4 °F 79% 30.07 in 10.0 mi SSW 4.6 mph - 0.00 in   Unknown
6:15 AM 78.8 °F - 73.4 °F 83% 30.07 in 10.0 mi SSW 5.8 mph - 0.00 in   Unknown
6:35 AM 80.6 °F 85.4 °F 73.4 °F 79% 30.07 in 10.0 mi SSW 4.6 mph - 0.00 in   Unknown
6:55 AM 80.6 °F 85.4 °F 73.4 °F 79% 30.08 in 10.0 mi SSW 5.8 mph - 0.00 in   Unknown
7:15 AM 80.6 °F 85.4 °F 73.4 °F 79% 30.08 in 10.0 mi SW 3.5 mph - 0.00 in   Unknown
7:35 AM 80.6 °F 85.4 °F 73.4 °F 79% 30.08 in 10.0 mi Calm Calm - 0.00 in   Unknown
7:55 AM 82.4 °F 89.5 °F 75.2 °F 79% 30.08 in 10.0 mi WNW 4.6 mph - 0.00 in   Unknown
8:15 AM 82.4 °F 89.5 °F 75.2 °F 79% 30.08 in 10.0 mi West 4.6 mph - 0.00 in   Unknown
8:35 AM 80.6 °F 85.4 °F 73.4 °F 79% 30.09 in 10.0 mi West 4.6 mph - 0.00 in   Unknown
8:55 AM 78.8 °F - 75.2 °F 89% 30.09 in 10.0 mi West 8.1 mph - 0.00 in   Unknown
9:15 AM 80.6 °F 85.4 °F 73.4 °F 79% 30.09 in 10.0 mi West 6.9 mph - 0.00 in   Unknown
9:35 AM 82.4 °F 88.2 °F 73.4 °F 74% 30.10 in 10.0 mi West 5.8 mph - 0.00 in   Unknown
9:55 AM 82.4 °F 88.2 °F 73.4 °F 74% 30.10 in 10.0 mi WSW 8.1 mph - 0.00 in   Unknown
10:15 AM 82.4 °F 87.2 °F 71.6 °F 70% 30.10 in 10.0 mi West 8.1 mph - 0.00 in   Unknown
10:35 AM 82.4 °F 87.2 °F 71.6 °F 70% 30.10 in 10.0 mi West 5.8 mph - 0.00 in   Unknown
10:55 AM 82.4 °F 88.2 °F 73.4 °F 74% 30.11 in 9.0 mi WSW 5.8 mph - 0.00 in   Light Drizzle
11:15 AM 82.4 °F 88.2 °F 73.4 °F 74% 30.11 in 10.0 mi WSW 6.9 mph - 0.00 in   Unknown
11:35 AM 82.4 °F 88.2 °F 73.4 °F 74% 30.11 in 10.0 mi SW 8.1 mph - 0.00 in   Unknown
11:55 AM 84.2 °F 90.9 °F 73.4 °F 70% 30.10 in 10.0 mi SW 5.8 mph - 0.00 in   Unknown
12:15 PM 84.2 °F 90.9 °F 73.4 °F 70% 30.10 in 10.0 mi WSW 5.8 mph - 0.00 in   Unknown
12:35 PM 84.2 °F 90.9 °F 73.4 °F 70% 30.10 in 10.0 mi SSW 6.9 mph - 0.00 in   Unknown
12:55 PM 84.2 °F 89.6 °F 71.6 °F 66% 30.09 in 10.0 mi SW 10.4 mph - 0.00 in   Unknown
1:15 PM 87.8 °F 95.6 °F 73.4 °F 62% 30.08 in 10.0 mi SSW 10.4 mph - 0.00 in   Unknown
1:35 PM 87.8 °F 93.8 °F 71.6 °F 58% 30.07 in 10.0 mi SSW 9.2 mph 17.3 mph 0.00 in   Unknown
1:55 PM 86.0 °F 93.4 °F 73.4 °F 66% 30.07 in 10.0 mi SW 13.8 mph 20.7 mph 0.00 in   Unknown
2:15 PM 86.0 °F 93.4 °F 73.4 °F 66% 30.06 in 10.0 mi South 13.8 mph 18.4 mph 0.00 in   Unknown
2:35 PM 84.2 °F 92.3 °F 75.2 °F 74% 30.06 in 10.0 mi South 15.0 mph 19.6 mph 0.00 in   Unknown
2:55 PM 78.8 °F - 73.4 °F 83% 30.06 in 0.8 mi SSW 13.8 mph 19.6 mph 0.00 in   Haze
3:15 PM 78.8 °F - 75.2 °F 89% 30.04 in 1.8 mi South 16.1 mph - 0.00 in   Mist
3:35 PM 82.4 °F 90.9 °F 77.0 °F 84% 30.04 in 8.0 mi South 15.0 mph 19.6 mph 0.00 in   Unknown
3:55 PM 82.4 °F 89.5 °F 75.2 °F 79% 30.03 in 9.0 mi South 16.1 mph 19.6 mph 0.00 in   Unknown
4:15 PM 82.4 °F 89.5 °F 75.2 °F 79% 30.03 in 10.0 mi South 15.0 mph 19.6 mph 0.00 in   Unknown
4:35 PM 82.4 °F 89.5 °F 75.2 °F 79% 30.03 in 10.0 mi South 16.1 mph 20.7 mph 0.00 in   Unknown
4:55 PM 82.4 °F 89.5 °F 75.2 °F 79% 30.03 in 10.0 mi SSW 15.0 mph 23.0 mph 0.00 in   Unknown
5:15 PM 78.8 °F - 73.4 °F 83% 30.03 in 10.0 mi SSW 11.5 mph 17.3 mph 0.00 in   Unknown
5:35 PM 78.8 °F - 71.6 °F 78% 30.02 in 10.0 mi SW 6.9 mph - 0.00 in   Unknown
5:55 PM 78.8 °F - 71.6 °F 78% 30.02 in 10.0 mi SW 9.2 mph - 0.00 in   Unknown
6:15 PM 80.6 °F 84.6 °F 71.6 °F 74% 30.02 in 10.0 mi SSW 9.2 mph - 0.00 in   Unknown
6:35 PM 80.6 °F 85.4 °F 73.4 °F 79% 30.02 in 10.0 mi SSW 6.9 mph - 0.00 in   Unknown
6:55 PM 82.4 °F 88.2 °F 73.4 °F 74% 30.02 in 10.0 mi South 9.2 mph - 0.00 in   Unknown
7:15 PM 80.6 °F 86.2 °F 75.2 °F 84% 30.03 in 10.0 mi SSW 10.4 mph 18.4 mph 0.00 in   Unknown
7:35 PM 80.6 °F 86.2 °F 75.2 °F 84% 30.02 in 10.0 mi SSW 10.4 mph - 0.00 in   Unknown
7:55 PM 80.6 °F 86.2 °F 75.2 °F 84% 30.02 in 10.0 mi South 8.1 mph - 0.00 in   Unknown
8:15 PM 80.6 °F 86.2 °F 75.2 °F 84% 30.02 in 10.0 mi South 10.4 mph 17.3 mph 0.00 in   Unknown
8:35 PM 80.6 °F 86.2 °F 75.2 °F 84% 30.02 in 10.0 mi South 15.0 mph 20.7 mph 0.00 in   Unknown
8:55 PM 78.8 °F - 71.6 °F 78% 30.03 in 10.0 mi SSW 13.8 mph - 0.00 in   Unknown
9:15 PM 78.8 °F - 73.4 °F 83% 30.04 in 10.0 mi SSW 16.1 mph 24.2 mph 0.00 in   Unknown
9:35 PM 78.8 °F - 71.6 °F 78% 30.04 in 10.0 mi SSW 13.8 mph 21.9 mph 0.00 in   Unknown
9:55 PM 78.8 °F - 71.6 °F 78% 30.04 in 10.0 mi SSW 9.2 mph - 0.00 in   Unknown
10:15 PM 78.8 °F - 73.4 °F 83% 30.04 in 10.0 mi SW 11.5 mph 16.1 mph 0.00 in   Unknown
10:35 PM 78.8 °F - 73.4 °F 83% 30.04 in 10.0 mi SW 10.4 mph 18.4 mph 0.00 in   Unknown
10:55 PM 78.8 °F - 71.6 °F 78% 30.04 in 10.0 mi SW 11.5 mph - 0.00 in   Unknown
11:15 PM 78.8 °F - 71.6 °F 78% 30.05 in 10.0 mi SW 6.9 mph - 0.00 in   Unknown
11:35 PM 78.8 °F - 73.4 °F 83% 30.05 in 10.0 mi SW 6.9 mph - 0.00 in   Unknown
11:55 PM 78.8 °F - 71.6 °F 78% 30.05 in 10.0 mi SW 9.2 mph - 0.00 in   Unknown